Retour au catalogue

TITAN 3C TRANSTAGE DEB

ActifMEO
NORAD 38698·DEBRIS·🇺🇸 United States

Lancé Sep 26, 1968 depuis Cape Canaveral Space Force Station

Loading…

Prochains Passages (prochaines 24 heures)

TLE

FraisSource: Space-Track

Époque: Sep 14, 2026, 07:48 UTC

1 38698U 68081Y   26257.32542616 -.00000128  00000-0  00000-0 0  9990
2 38698   3.7373  69.9185 0216517 181.0878 179.2152  1.04403343 86702

Suivez TITAN 3C TRANSTAGE DEB en temps réel avec AllMySat

Download on the App Store